Volver al catálogo

USA 229 DEB

ActivoLEO
NORAD 37391·DEBRIS·🇺🇸 United States

Lanzado Apr 15, 2011 desde Vandenberg Space Force Base

Loading…

Próximos Pases (próximas 24 horas)

TLE

ObsoletoSource: Mike McCants

Época: Aug 15, 2026, 20:34 UTC

1 37391U 11014B   26227.85722756 0.00000000  00000-0  00000-0 0    04
2 37391  63.4325 128.8406 0376377 357.7690   2.2310 13.41003479    07

Sigue USA 229 DEB en tiempo real con AllMySat

Download on the App Store